| time (UTC) | temp F | wind direction | speed MPH | gust MPH | rain 1hr in | rain 24hr in | rain mn in | humidity % | barometer mb |
| 20260505022249 | 45 | 267 | 0.0 | 2.0 | 0.00 | 0.05 | 0.05 | 75 | 364.0 |
| 20260505021748 | 45 | 291 | 1.0 | 2.0 | 0.00 | 0.05 | 0.05 | 75 | 364.0 |
| 20260505021250 | 45 | 3 | 0.0 | 2.0 | 0.00 | 0.05 | 0.05 | 75 | 363.9 |
| 20260505020750 | 45 | 3 | 0.0 | 3.0 | 0.00 | 0.05 | 0.05 | 74 | 363.9 |
| 20260505020248 | 45 | 6 | 1.0 | 4.0 | 0.00 | 0.05 | 0.05 | 74 | 364.3 |
| 20260505015749 | 45 | 346 | 3.0 | 7.0 | 0.00 | 0.05 | 0.05 | 75 | 364.3 |
| 20260505015248 | 45 | 4 | 3.0 | 10.0 | 0.00 | 0.05 | 0.05 | 73 | 364.2 |
| 20260505014749 | 45 | 0 | 6.0 | 10.0 | 0.00 | 0.05 | 0.05 | 73 | 364.0 |
| 20260505014536 | 46 | 28 | 7.0 | 11.0 | 0.00 | 0.05 | 0.05 | 71 | 363.9 |
| 20260505013749 | 46 | 9 | 4.0 | 11.0 | 0.01 | 0.05 | 0.05 | 70 | 363.8 |
| 20260505013249 | 46 | 349 | 6.0 | 12.0 | 0.01 | 0.05 | 0.05 | 70 | 363.7 |
| 20260505012747 | 46 | 39 | 6.0 | 12.0 | 0.01 | 0.05 | 0.05 | 69 | 363.7 |
| 20260505012247 | 46 | 356 | 5.0 | 13.0 | 0.01 | 0.05 | 0.05 | 71 | 363.9 |
| 20260505011748 | 46 | 356 | 7.0 | 14.0 | 0.01 | 0.05 | 0.05 | 71 | 363.8 |
| 20260505011248 | 47 | 0 | 7.0 | 15.0 | 0.01 | 0.05 | 0.05 | 70 | 363.9 |
| 20260505010747 | 47 | 350 | 11.0 | 15.0 | 0.01 | 0.05 | 0.05 | 68 | 364.0 |
| 20260505010247 | 47 | 350 | 10.0 | 14.0 | 0.01 | 0.05 | 0.05 | 67 | 363.9 |
| 20260505005746 | 47 | 339 | 9.0 | 18.0 | 0.01 | 0.04 | 0.05 | 67 | 363.9 |
| 20260505005245 | 47 | 6 | 9.0 | 18.0 | 0.01 | 0.04 | 0.05 | 68 | 363.8 |
| 20260505004745 | 49 | 21 | 9.0 | 17.0 | 0.01 | 0.04 | 0.05 | 66 | 363.7 |
| 20260505004246 | 50 | 343 | 11.0 | 16.0 | 0.01 | 0.04 | 0.05 | 61 | 363.9 |
| 20260505003746 | 51 | 350 | 7.0 | 11.0 | 0.00 | 0.04 | 0.04 | 60 | 363.8 |
| 20260505003245 | 51 | 10 | 0.0 | 5.0 | 0.00 | 0.04 | 0.04 | 59 | 363.6 |
| 20260505002746 | 51 | 18 | 1.0 | 5.0 | 0.00 | 0.04 | 0.04 | 57 | 363.5 |
| 20260505002244 | 52 | 34 | 1.0 | 4.0 | 0.00 | 0.04 | 0.04 | 58 | 363.5 |
| 20260505001745 | 52 | 30 | 0.0 | 3.0 | 0.00 | 0.04 | 0.04 | 61 | 363.5 |
| 20260505001246 | 51 | 21 | 1.0 | 4.0 | 0.00 | 0.04 | 0.04 | 60 | 363.4 |
| 20260505000745 | 51 | 346 | 2.0 | 4.0 | 0.00 | 0.04 | 0.04 | 63 | 363.4 |
| 20260505000535 | 51 | 345 | 2.0 | 4.0 | 0.01 | 0.04 | 0.04 | 64 | 363.4 |
| 20260504235744 | 51 | 51 | 0.0 | 1.0 | 0.01 | 0.03 | 0.04 | 65 | 363.4 |
| 20260504235530 | 51 | 56 | 0.0 | 0.0 | 0.01 | 0.03 | 0.04 | 62 | 363.4 |
| 20260504234745 | 51 | 56 | 0.0 | 1.0 | 0.01 | 0.03 | 0.04 | 63 | 363.1 |
| 20260504234245 | 50 | 56 | 0.0 | 2.0 | 0.01 | 0.03 | 0.04 | 62 | 363.0 |
| 20260504234033 | 50 | 56 | 0.0 | 5.0 | 0.01 | 0.03 | 0.04 | 62 | 363.0 |
| 20260504233529 | 50 | 23 | 0.0 | 7.0 | 0.01 | 0.03 | 0.04 | 63 | 363.1 |
| 20260504232744 | 50 | 46 | 3.0 | 7.0 | 0.01 | 0.03 | 0.04 | 63 | 363.1 |
| 20260504232244 | 50 | 11 | 2.0 | 4.0 | 0.01 | 0.03 | 0.04 | 60 | 363.4 |
| 20260504232032 | 49 | 11 | 0.0 | 3.0 | 0.01 | 0.03 | 0.04 | 61 | 363.5 |
| 20260504231243 | 50 | 283 | 0.0 | 13.0 | 0.01 | 0.03 | 0.04 | 61 | 363.5 |
| 20260504230745 | 50 | 347 | 6.0 | 17.0 | 0.01 | 0.03 | 0.04 | 56 | 363.4 |
| 20260504230244 | 52 | 340 | 12.0 | 17.0 | 0.00 | 0.03 | 0.03 | 53 | 363.2 |
| 20260504225746 | 54 | 328 | 10.0 | 16.0 | 0.00 | 0.03 | 0.03 | 48 | 363.1 |
| 20260504225535 | 54 | 3 | 6.0 | 15.0 | 0.00 | 0.03 | 0.03 | 44 | 362.9 |
| 20260504224739 | 54 | 338 | 3.0 | 7.0 | 0.00 | 0.03 | 0.03 | 45 | 362.8 |
| 20260504224234 | 54 | 350 | 1.0 | 3.0 | 0.00 | 0.03 | 0.03 | 47 | 362.7 |
| 20260504223734 | 55 | 27 | 0.0 | 4.0 | 0.00 | 0.03 | 0.03 | 43 | 362.5 |
| 20260504223233 | 55 | 14 | 0.0 | 7.0 | 0.00 | 0.03 | 0.03 | 44 | 362.2 |
| 20260504222733 | 55 | 26 | 3.0 | 12.0 | 0.00 | 0.03 | 0.03 | 43 | 362.2 |
| 20260504222232 | 55 | 31 | 7.0 | 12.0 | 0.01 | 0.03 | 0.03 | 45 | 362.2 |
| 20260504222019 | 55 | 354 | 2.0 | 4.0 | 0.01 | 0.03 | 0.03 | 45 | 362.1 |
| 20260504221226 | 55 | 27 | 0.0 | 4.0 | 0.01 | 0.03 | 0.03 | 46 | 362.0 |
| 20260504220724 | 55 | 7 | 2.0 | 4.0 | 0.01 | 0.03 | 0.03 | 49 | 361.7 |
| 20260504220216 | 55 | 31 | 0.0 | 1.0 | 0.02 | 0.03 | 0.03 | 54 | 361.5 |
| 20260504215714 | 55 | 61 | 0.0 | 6.0 | 0.02 | 0.01 | 0.03 | 54 | 361.4 |
| 20260504215214 | 54 | 106 | 1.0 | 6.0 | 0.02 | 0.01 | 0.03 | 54 | 361.5 |
| 20260504214710 | 54 | 147 | 0.0 | 4.0 | 0.02 | 0.01 | 0.03 | 57 | 361.7 |
| 20260504214209 | 52 | 140 | 1.0 | 5.0 | 0.03 | 0.01 | 0.03 | 59 | 362.0 |
| 20260504213954 | 51 | 64 | 2.0 | 5.0 | 0.03 | 0.01 | 0.03 | 58 | 362.2 |
| 20260504213203 | 51 | 50 | 0.0 | 10.0 | 0.03 | 0.01 | 0.03 | 58 | 362.5 |
| 20260504212703 | 51 | 82 | 0.0 | 12.0 | 0.03 | 0.01 | 0.03 | 57 | 363.0 |
| 20260504212256 | 52 | 353 | 1.0 | 26.0 | 0.02 | 0.01 | 0.02 | 49 | 363.6 |
| 20260504212239 | 51 | 40 | 6.0 | 12.0 | 0.02 | 0.01 | 0.02 | 55 | 363.5 |
| 20260504211204 | 52 | 349 | 7.0 | 28.0 | 0.02 | 0.01 | 0.02 | 49 | 363.7 |
| 20260504211009 | 53 | 34 | 12.0 | 28.0 | 0.02 | 0.01 | 0.02 | 46 | 363.5 |
| 20260504210451 | 54 | 0 | 9.0 | 15.0 | 0.01 | 0.01 | 0.01 | 44 | 363.2 |
| 20260504205951 | 53 | 34 | 2.0 | 13.0 | 0.01 | 0.00 | 0.01 | 42 | 363.0 |
| 20260504205204 | 53 | 40 | 6.0 | 22.0 | 0.01 | 0.00 | 0.01 | 44 | 363.0 |
| 20260504204703 | 55 | 60 | 2.0 | 22.0 | 0.01 | 0.00 | 0.01 | 39 | 362.8 |
| 20260504204202 | 57 | 44 | 11.0 | 22.0 | 0.00 | 0.00 | 0.00 | 39 | 362.5 |
| 20260504203704 | 58 | 17 | 15.0 | 23.0 | 0.00 | 0.00 | 0.00 | 32 | 362.1 |
| 20260504203202 | 58 | 46 | 12.0 | 23.0 | 0.00 | 0.00 | 0.00 | 33 | 361.6 |
| 20260504202703 | 59 | 33 | 14.0 | 22.0 | 0.00 | 0.00 | 0.00 | 31 | 361.3 |
| 20260504202202 | 59 | 17 | 13.0 | 26.0 | 0.00 | 0.00 | 0.00 | 30 | 361.0 |
| 20260504201948 | 60 | 357 | 16.0 | 26.0 | 0.00 | 0.00 | 0.00 | 29 | 361.3 |
| 20260504201205 | 61 | 4 | 14.0 | 23.0 | 0.00 | 0.00 | 0.00 | 27 | 361.5 |
| 20260504200702 | 63 | 64 | 9.0 | 16.0 | 0.00 | 0.00 | 0.00 | 23 | 361.5 |
| 20260504200203 | 64 | 74 | 11.0 | 19.0 | 0.00 | 0.00 | 0.00 | 23 | 361.4 |
| 20260504195704 | 64 | 23 | 11.0 | 19.0 | 0.00 | 0.00 | 0.00 | 22 | 361.5 |
| 20260504195203 | 64 | 349 | 14.0 | 20.0 | 0.00 | 0.00 | 0.00 | 25 | 361.3 |
| 20260504194703 | 64 | 31 | 11.0 | 20.0 | 0.00 | 0.00 | 0.00 | 24 | 361.3 |
| 20260504194203 | 64 | 347 | 12.0 | 21.0 | 0.00 | 0.00 | 0.00 | 28 | 361.4 |
| 20260504193952 | 65 | 353 | 11.0 | 21.0 | 0.00 | 0.00 | 0.00 | 26 | 361.3 |
| 20260504193451 | 65 | 343 | 13.0 | 20.0 | 0.00 | 0.00 | 0.00 | 28 | 361.3 |
| 20260504192949 | 66 | 339 | 15.0 | 20.0 | 0.00 | 0.00 | 0.00 | 26 | 361.2 |
| 20260504192453 | 66 | 315 | 11.0 | 18.0 | 0.00 | 0.00 | 0.00 | 27 | 361.2 |
| 20260504191704 | 65 | 357 | 11.0 | 17.0 | 0.00 | 0.00 | 0.00 | 27 | 361.0 |
| 20260504191449 | 65 | 331 | 13.0 | 18.0 | 0.00 | 0.00 | 0.00 | 27 | 361.2 |
| 20260504190703 | 65 | 356 | 10.0 | 18.0 | 0.00 | 0.00 | 0.00 | 28 | 361.2 |
| 20260504190203 | 65 | 6 | 9.0 | 18.0 | 0.00 | 0.00 | 0.00 | 26 | 361.2 |
| 20260504185952 | 65 | 326 | 7.0 | 17.0 | 0.00 | 0.00 | 0.00 | 24 | 361.2 |
| 20260504185204 | 65 | 328 | 11.0 | 17.0 | 0.00 | 0.00 | 0.00 | 25 | 361.2 |
| 20260504184942 | 65 | 329 | 10.0 | 17.0 | 0.00 | 0.00 | 0.00 | 25 | 361.3 |
| 20260504184441 | 65 | 323 | 8.0 | 17.0 | 0.00 | 0.00 | 0.00 | 25 | 361.3 |
| 20260504183943 | 65 | 322 | 10.0 | 17.0 | 0.00 | 0.00 | 0.00 | 25 | 361.5 |
| 20260504183431 | 65 | 318 | 7.0 | 17.0 | 0.00 | 0.00 | 0.00 | 26 | 361.6 |
| 20260504182643 | 65 | 326 | 10.0 | 17.0 | 0.00 | 0.00 | 0.00 | 25 | 361.6 |
| 20260504182139 | 65 | 312 | 11.0 | 17.0 | 0.00 | 0.00 | 0.00 | 26 | 361.7 |
| 20260504181639 | 64 | 329 | 9.0 | 17.0 | 0.00 | 0.00 | 0.00 | 25 | 361.8 |
| 20260504181216 | 64 | 345 | 10.0 | 16.0 | 0.00 | 0.00 | 0.00 | 27 | 362.1 |
| 20260504181206 | 64 | 349 | 11.0 | 17.0 | 0.00 | 0.00 | 0.00 | 26 | 362.0 |
| 20260504180132 | 63 | 332 | 5.0 | 16.0 | 0.00 | 0.00 | 0.00 | 27 | 362.0 |
| 20260504175630 | 63 | 331 | 6.0 | 12.0 | 0.00 | 0.00 | 0.00 | 29 | 362.2 |
| 20260504175135 | 63 | 315 | 5.0 | 14.0 | 0.00 | 0.00 | 0.00 | 27 | 362.3 |
| 20260504174633 | 62 | 288 | 6.0 | 14.0 | 0.00 | 0.00 | 0.00 | 30 | 362.4 |
| 20260504174134 | 62 | 287 | 5.0 | 12.0 | 0.00 | 0.00 | 0.00 | 29 | 362.4 |
| 20260504173633 | 62 | 266 | 7.0 | 12.0 | 0.00 | 0.00 | 0.00 | 29 | 362.5 |
| 20260504173133 | 61 | 299 | 3.0 | 12.0 | 0.00 | 0.00 | 0.00 | 29 | 362.5 |
| 20260504172633 | 61 | 247 | 4.0 | 12.0 | 0.00 | 0.00 | 0.00 | 30 | 362.7 |
| 20260504172421 | 61 | 308 | 3.0 | 5.0 | 0.00 | 0.00 | 0.00 | 30 | 362.8 |
| 20260504171632 | 0 | 0.0 | 0.0 | 0.00 | 0.00 | 0.00 | 362.7 | ||
| 20260504171129 | 60 | 252 | 6.0 | 9.0 | 0.00 | 0.00 | 0.00 | 31 | 362.7 |
| 20260504170622 | 60 | 252 | 6.0 | 9.0 | 0.00 | 0.00 | 0.00 | 31 | 362.7 |
| 20260504170122 | 60 | 256 | 5.0 | 9.0 | 0.00 | 0.00 | 0.00 | 31 | 362.8 |
| 20260504160112 | 58 | 285 | 7.0 | 11.0 | 0.00 | 0.00 | 0.00 | 31 | 362.7 |
| 20260504151035 | 52 | 235 | 0.0 | 0.0 | 0.00 | 0.00 | 0.00 | 41 | 362.9 |
| 20260504150529 | 51 | 191 | 0.0 | 0.0 | 0.00 | 0.00 | 0.00 | 44 | 362.9 |
| 20260504150302 | 50 | 191 | 0.0 | 0.0 | 0.00 | 0.00 | 0.00 | 44 | 362.9 |
| 20260504141019 | 46 | 190 | 0.0 | 0.0 | 0.00 | 0.00 | 0.00 | 47 | 363.1 |
| 20260504140517 | 45 | 190 | 0.0 | 0.0 | 0.00 | 0.00 | 0.00 | 48 | 363.1 |
| 20260504130818 | 36 | 213 | 1.0 | 2.0 | 0.00 | 0.00 | 0.00 | 57 | 363.1 |
| 20260504110505 | 33 | 49 | 0.0 | 0.0 | 0.00 | 0.00 | 0.00 | 58 | 363.2 |
| 20260504110301 | 33 | 49 | 0.0 | 0.0 | 0.00 | 0.00 | 0.00 | 58 | 363.2 |
| 20260504081927 | 39 | 49 | 0.0 | 2.0 | 0.00 | 0.00 | 0.00 | 49 | 364.0 |
| 20260504081427 | 39 | 49 | 0.0 | 2.0 | 0.00 | 0.00 | 0.00 | 49 | 364.0 |
| 20260504080927 | 40 | 34 | 1.0 | 3.0 | 0.00 | 0.00 | 0.00 | 48 | 364.0 |
| 20260504080422 | 40 | 34 | 0.0 | 3.0 | 0.00 | 0.00 | 0.00 | 48 | 364.2 |
| 20260504070409 | 43 | 26 | 0.0 | 1.0 | 0.00 | 0.00 | 0.00 | 45 | 364.7 |
| 20260504050649 | 49 | 41 | 3.0 | 9.0 | 0.00 | 0.00 | 0.00 | 36 | 365.0 |
| 20260504045907 | 50 | 339 | 4.0 | 9.0 | 0.00 | 0.00 | 0.00 | 35 | 364.9 |
| 20260504045407 | 50 | 53 | 5.0 | 9.0 | 0.00 | 0.00 | 0.00 | 34 | 365.0 |
| 20260504045150 | 51 | 10 | 4.0 | 9.0 | 0.00 | 0.00 | 0.00 | 33 | 364.7 |
| 20260504044408 | 51 | 49 | 4.0 | 12.0 | 0.00 | 0.00 | 0.00 | 33 | 364.7 |
| 20260504043908 | 51 | 46 | 7.0 | 12.0 | 0.00 | 0.00 | 0.00 | 34 | 364.7 |
| 20260504043403 | 50 | 359 | 6.0 | 13.0 | 0.00 | 0.00 | 0.00 | 34 | 364.7 |
| 20260504042905 | 48 | 359 | 6.0 | 13.0 | 0.00 | 0.00 | 0.00 | 36 | 364.7 |
| 20260504042405 | 49 | 350 | 1.0 | 9.0 | 0.00 | 0.00 | 0.00 | 40 | 364.6 |
| 20260504041904 | 49 | 33 | 3.0 | 9.0 | 0.00 | 0.00 | 0.00 | 38 | 364.7 |
| 20260504041401 | 48 | 0 | 0.0 | 1.0 | 0.00 | 0.00 | 0.00 | 40 | 364.4 |
| 20260504040856 | 48 | 0 | 0.0 | 0.0 | 0.00 | 0.00 | 0.00 | 39 | 364.5 |
| 20260504040345 | 48 | 0 | 0.0 | 0.0 | 0.00 | 0.00 | 0.00 | 41 | 364.6 |
| 20260504035840 | 48 | 0 | 0.0 | 0.0 | 0.00 | 0.00 | 0.00 | 38 | 364.5 |
| 20260504035334 | 48 | 0 | 0.0 | 0.0 | 0.00 | 0.00 | 0.00 | 40 | 364.5 |
| 20260504034834 | 49 | 0 | 0.0 | 3.0 | 0.00 | 0.00 | 0.00 | 41 | 364.6 |
| 20260504034333 | 49 | 0 | 0.0 | 3.0 | 0.00 | 0.00 | 0.00 | 43 | 364.6 |
| 20260504033834 | 50 | 232 | 0.0 | 0.0 | 0.00 | 0.00 | 0.00 | 38 | 364.6 |
| 20260504033333 | 50 | 233 | 0.0 | 0.0 | 0.00 | 0.00 | 0.00 | 40 | 364.6 |
| 20260504032834 | 51 | 232 | 0.0 | 0.0 | 0.00 | 0.00 | 0.00 | 43 | 364.6 |
| 20260504032333 | 52 | 232 | 0.0 | 0.0 | 0.00 | 0.00 | 0.00 | 36 | 364.6 |
| 20260504031831 | 53 | 232 | 0.0 | 1.0 | 0.00 | 0.00 | 0.00 | 35 | 364.7 |
| 20260504031623 | 53 | 232 | 0.0 | 1.0 | 0.00 | 0.00 | 0.00 | 36 | 364.6 |
| 20260504030832 | 54 | 213 | 0.0 | 0.0 | 0.00 | 0.00 | 0.00 | 33 | 364.6 |
| 20260504030332 | 54 | 213 | 0.0 | 0.0 | 0.00 | 0.00 | 0.00 | 33 | 364.7 |
| 20260504030137 | 54 | 213 | 0.0 | 0.0 | 0.00 | 0.00 | 0.00 | 33 | 364.5 |
| 20260504025332 | 54 | 247 | 0.0 | 0.0 | 0.00 | 0.00 | 0.00 | 31 | 364.5 |
| 20260504025121 | 55 | 247 | 0.0 | 0.0 | 0.00 | 0.00 | 0.00 | 32 | 364.3 |
| 20260504024325 | 55 | 247 | 0.0 | 1.0 | 0.00 | 0.00 | 0.00 | 32 | 364.3 |
| 20260504023819 | 56 | 247 | 0.0 | 1.0 | 0.00 | 0.00 | 0.00 | 32 | 364.3 |
| 20260504023317 | 57 | 283 | 0.0 | 0.0 | 0.00 | 0.00 | 0.00 | 31 | 364.4 |
| 20260504023058 | 57 | 283 | 0.0 | 1.0 | 0.00 | 0.00 | 0.00 | 30 | 364.3 |